Location: Newark
(45.4422°N, 16.2769°E)
Time: 11:46:12
(UTC+00:00)

Tiros 1 despin weight - Pass Details

Date: 15 December 2019
Orbit: 594 x 643 km, 48.2° (Epoch: 21 January)

Event Time Altitude Azimuth Distance (km) Brightness Sun altitude
Rises 01:09:18 0° 202° (SSW) 2,903 - -54.1°
Reaches altitude 10° 01:12:05 10° 186° (S) 1,991 - -53.6°
Maximum altitude 01:15:28 20° 139° (SE) 1,420 - -53.1°
Drops below altitude 10° 01:18:48 10° 91° (E) 1,976 - -52.6°
Sets 01:21:34 0° 75° (ENE) 2,874 - -52.1°
